LITUANICASAT-2 (42768 NORAD) Tracking and Keplerian Element Data

This shows tracking and keplerian element data for the satellite.

Feedback or suggestion? Click here.




ElementValue
Catalog42768
NameLITUANICASAT-2
Epoch Orbit32083
Epoch Day85.06531101
Epoch Year2023
RAAN133.9987
Inclination97.1481
Eccentricity0.0005247
Argument of Perigee257.6355
Mean Anonmoly102.4335
Mean Motion15.97683158
Decay Rate0.01221608
L11 42768U 17036D 23085.06531101 .01221608 75244-3 27713-2 0 9996
L22 42768 97.1481 133.9987 0005247 257.6355 102.4335 15.97683158320837



Live tracking and technical data element details for LITUANICASAT-2 (NORAD 42768). LITUANICASAT-2 can be tracked NOW for your location showing map with azimuth and elevation plus other details from your city location.







IsCatalogInMostPopularTable: catalog: 42768, numindb: 595
Update: records affected: 1



GetName: 42768 LITUANICASAT-2

Hit Count: updated at: Mon, 17 Jun 2024 23:52:53 GMT